Location: Rehoboth Beach
(38.7438°N, 75.1341°W)
Time: 14:15:25
(UTC-04:00)

Cosmos 1452 Rocket - Visible Passes

Search period start: 02 July 2015 00:00
Search period end: 12 July 2015 00:00
Orbit: 768 x 775 km, 74.1° (Epoch: 01 July)

Date Brightness Start Highest point End Pass type
(mag) Time Alt. Az. Time Alt. Az. Time Alt. Az.
02 Jul 6.0 00:45:27 10° W 00:48:18 14° NW 00:50:55 10° NNW visible
02 Jul 3.9 22:28:06 34° SE 22:29:37 42° ESE 22:34:35 10° NNE visible
03 Jul 5.6 00:08:23 12° WSW 00:12:00 23° WNW 00:16:03 10° N visible
03 Jul 4.6 21:51:57 20° SE 21:53:51 25° E 21:58:07 10° NE visible
03 Jul 4.8 23:32:13 16° SW 23:35:50 36° WNW 23:40:40 10° N visible
04 Jul 5.2 21:15:39 10° SE 21:18:08 14° E 21:21:00 10° ENE visible
04 Jul 3.9 22:55:54 18° SSW 22:59:47 62° WNW 23:05:01 10° NNE visible
05 Jul 3.4 22:19:23 14° SSW 22:23:52 79° ESE 22:29:08 10° NNE visible
06 Jul 6.2 00:04:11 10° W 00:06:47 13° NW 00:09:07 10° NNW visible
06 Jul 3.8 21:43:04 10° S 21:48:01 45° ESE 21:53:02 10° NNE visible
06 Jul 5.8 23:26:26 10° WSW 23:30:28 21° WNW 23:34:23 10° N visible
07 Jul 4.5 21:07:59 10° SSE 21:12:15 27° E 21:16:37 10° NE visible
07 Jul 5.1 22:49:30 10° SW 22:54:17 34° WNW 22:59:02 10° N visible
08 Jul 4.1 22:13:04 10° SSW 22:18:13 57° WNW 22:23:25 10° N visible
09 Jul 3.5 21:37:02 10° SSW 21:42:16 84° ESE 21:47:34 10° NNE visible
09 Jul 6.4 23:22:58 10° W 23:25:15 12° NW 23:27:18 10° NNW visible
10 Jul 3.7 21:01:25 10° S 21:06:26 49° ESE 21:11:30 10° NNE visible
10 Jul 6.1 22:45:01 10° WSW 22:48:55 20° WNW 22:52:41 10° NNW visible
11 Jul 5.3 22:08:00 10° SW 22:12:43 32° WNW 22:17:24 10° N visible
